Date_and_time,latitude,longitude,wind_speed,RelWindDirFrom,WindDirFrom,air_pressure,air_temperature,relative_humidity,Temp,platform_speed_wrt_ground,air_pressure_at_mean_sea_level,platform_orientation
2018-10-11 23:40,52.03891,-97.3041383333333,1.7,4.9,105,988.40,0.4,73,5.61,6.7,1016.26,140.2
2018-10-11 23:50,52.02713,-97.2598583333333,7.2,12.6,61,988.31,0.3,72,5.37,10.7,1016.18,140.2
2018-10-12 00:00,52.01775,-97.2120916666667,9.6,12.5,51,988.25,0.2,72,5.65,11.1,1016.12,126.1
2018-10-12 00:00,52.0174616666667,-97.2109366666667,7.9,8.1,46,988.26,0.1,72,5.78,0.3,1016.13,121.4
2018-10-12 00:10,52.008155,-97.1632366666667,8.6,11.5,45,988.29,0.2,71,5.59,11.1,1016.15,121.4
2018-10-12 00:20,51.9984866666667,-97.1157616666667,8.4,11.2,45,988.31,0.2,70,5.41,11.1,1016.16,121.4
2018-10-12 00:30,51.9865933333333,-97.0713966666667,6.3,10.6,49,988.27,0.2,69,5.88,10.7,1016.10,121.4
2018-10-12 00:40,51.9599683333333,-97.0471466666667,2.1,4.3,96,988.21,0.4,70,6.30,11.0,1016.02,121.4
2018-10-12 00:50,51.933135,-97.0235933333333,0.9,5.0,165,988.14,0.5,69,6.51,11.0,1015.97,121.4
2018-10-12 01:00,51.906595,-96.9992466666667,2.4,4.3,238,988.10,0.8,69,6.46,11.0,1015.91,125.4
2018-10-12 01:10,51.8834516666667,-96.9791333333333,3.9,7.2,236,988.04,1.0,72,6.61,9.5,1015.84,125.4
2018-10-12 01:20,51.8828116666667,-96.9783716666667,8.9,12.5,302,987.87,1.1,71,6.67,0.3,1015.65,125.4
2018-10-12 01:30,51.882845,-96.9782583333333,10.3,13.0,278,987.75,0.5,74,6.71,0.0,1015.57,125.4
2018-10-12 01:40,51.882845,-96.9782533333333,9.9,13.7,287,987.72,0.5,70,6.71,0.0,1015.54,125.4
2018-10-12 01:50,51.8828483333333,-96.9782516666667,9.6,11.7,286,987.68,0.7,69,6.72,0.0,1015.50,125.4
2018-10-12 02:00,51.882845,-96.9782466666667,8.7,10.8,289,987.69,0.7,68,6.72,0.0,1015.50,133.0
2018-10-12 02:10,51.882855,-96.9782433333333,8.2,11.5,282,987.72,0.6,68,6.73,0.0,1015.54,133.0
2018-10-12 02:20,51.882785,-96.9783383333333,6.5,9.2,299,987.80,0.8,67,6.73,0.0,1015.61,133.0
2018-10-12 02:30,51.8828366666667,-96.97826,6.0,10.7,292,987.78,0.9,68,6.74,0.0,1015.58,133.0
2018-10-12 02:40,51.8830533333333,-96.9781583333333,13.4,17.4,280,987.40,0.8,69,6.73,0.1,1015.19,133.0
2018-10-12 02:50,51.882975,-96.9781566666667,12.3,14.1,278,987.40,0.7,69,6.72,0.0,1015.18,133.0
2018-10-12 03:00,51.8829966666667,-96.9781666666667,13.3,16.3,272,987.30,0.5,68,6.72,0.0,1015.07,133.1
2018-10-12 03:10,51.883015,-96.9781466666667,13.4,15.6,268,987.23,0.5,69,6.72,0.0,1014.99,133.1
2018-10-12 03:20,51.8830366666667,-96.9781316666667,13.2,15.4,269,987.22,0.5,68,6.72,0.0,1015.02,133.1
2018-10-12 03:30,51.8830233333333,-96.9781716666667,12.9,15.6,270,987.22,0.6,68,6.72,0.0,1015.02,133.1
2018-10-12 03:40,51.8830916666667,-96.97814,12.6,14.7,270,987.20,0.6,67,6.72,0.0,1014.98,133.1
2018-10-12 03:50,51.8830583333333,-96.9781366666667,13.5,16.2,276,987.14,0.7,65,6.72,0.0,1014.91,133.1
2018-10-12 04:00,51.8830516666667,-96.9781233333333,13.8,16.0,273,987.02,0.7,66,6.72,0.0,1014.79,151.0
2018-10-12 04:10,51.8830583333333,-96.97815,13.4,15.8,270,986.94,0.7,66,6.72,0.0,1014.70,151.0
2018-10-12 04:20,51.8831133333333,-96.9781266666667,13.6,16.2,265,986.83,0.7,67,6.72,0.0,1014.58,151.0
2018-10-12 04:30,51.8831233333333,-96.9781316666667,14.3,17.3,263,986.80,0.6,67,6.71,0.0,1014.56,151.0
2018-10-12 04:40,51.8831283333333,-96.9781233333333,14.2,17.1,263,986.74,0.6,67,6.71,0.0,1014.51,151.0
2018-10-12 04:50,51.883135,-96.9781316666667,13.3,16.0,261,986.72,0.6,68,6.71,0.0,1014.49,151.0
2018-10-12 05:00,51.8831133333333,-96.9781583333333,13.6,15.8,266,986.66,0.6,68,6.70,0.0,1014.43,13.3
2018-10-12 05:10,51.8831533333333,-96.9781616666667,13.3,16.8,266,986.70,0.6,69,6.70,0.0,1014.47,13.3
2018-10-12 05:20,51.8831433333333,-96.9781416666667,14.0,16.1,263,986.66,0.6,68,6.70,0.0,1014.44,13.3
2018-10-12 05:30,51.8831316666667,-96.9781483333333,13.9,17.3,267,986.61,0.5,69,6.69,0.0,1014.38,13.3
2018-10-12 05:40,51.8831116666667,-96.978135,14.1,15.9,264,986.59,0.5,70,6.69,0.0,1014.36,13.3
2018-10-12 05:50,51.88315,-96.9781566666667,13.7,16.0,264,986.57,0.5,71,6.69,0.0,1014.33,13.3
2018-10-12 06:00,51.8831166666667,-96.9781433333333,14.1,16.4,264,986.47,0.5,71,6.68,0.0,1014.23,10.0
2018-10-12 06:10,51.8831466666667,-96.9781516666667,14.2,17.3,266,986.39,0.5,71,6.68,0.0,1014.15,10.0
2018-10-12 06:20,51.8830916666667,-96.9781383333333,14.5,17.3,269,986.42,0.5,70,6.68,0.0,1014.18,10.0
2018-10-12 06:30,51.88309,-96.9781216666667,14.1,16.3,274,986.35,0.5,69,6.68,0.0,1014.11,10.0
2018-10-12 06:40,51.8831266666667,-96.9781266666667,13.5,16.0,269,986.36,0.4,70,6.68,0.0,1014.13,10.0
2018-10-12 06:50,51.8831533333333,-96.97814,13.6,15.7,269,986.32,0.4,72,6.67,0.0,1014.09,10.0
2018-10-12 07:00,51.88316,-96.9781566666667,14.0,15.9,270,986.24,0.2,76,6.67,0.0,1014.01,348.7
2018-10-12 07:10,51.8831416666667,-96.9781533333333,14.4,16.6,273,986.20,0.1,79,6.66,0.0,1013.98,348.7
2018-10-12 07:20,51.883085,-96.9781166666667,14.9,17.5,272,986.20,-0.0,81,6.65,0.0,1013.99,348.7
2018-10-12 07:30,51.8831016666667,-96.9781366666667,15.3,17.4,274,986.13,-0.2,80,6.64,0.0,1013.93,348.7
2018-10-12 07:40,51.8831,-96.9781316666667,15.5,17.5,275,986.07,-0.3,80,6.63,0.0,1013.88,348.7
2018-10-12 07:50,51.8830933333333,-96.978115,15.8,17.4,274,986.03,-0.4,80,6.62,0.0,1013.83,348.7
2018-10-12 08:00,51.8830866666667,-96.9781183333333,15.9,18.2,272,985.92,-0.2,80,6.61,0.0,1013.71,129.9
2018-10-12 08:10,51.8830933333333,-96.9781033333333,18.0,20.1,276,985.76,-0.3,77,6.60,0.0,1013.55,129.9
2018-10-12 08:20,51.883085,-96.9781166666667,17.7,20.1,277,985.76,-0.6,75,6.59,0.0,1013.57,129.9
2018-10-12 08:30,51.8830983333333,-96.97812,15.7,17.8,273,985.78,-0.7,77,6.57,0.0,1013.59,129.9
2018-10-12 08:40,51.8830833333333,-96.9781066666667,14.7,16.5,272,985.79,-0.7,79,6.57,0.0,1013.61,129.9
2018-10-12 08:50,51.8831,-96.9781416666667,15.0,17.1,272,985.71,-0.6,80,6.56,0.0,1013.53,129.9
2018-10-12 09:00,51.8830866666667,-96.97813,16.3,18.7,274,985.61,-0.6,79,6.54,0.0,1013.44,150.2
2018-10-12 09:10,51.8830716666667,-96.978125,16.3,18.5,270,985.54,-0.5,80,6.52,0.0,1013.37,150.2
2018-10-12 09:20,51.8831166666667,-96.9781383333333,15.8,18.2,270,985.52,-0.6,79,6.50,0.0,1013.36,150.2
2018-10-12 09:30,51.8831266666667,-96.9781433333333,14.8,16.8,265,985.52,-0.6,81,6.48,0.0,1013.36,150.2
2018-10-12 09:40,51.88317,-96.9781533333333,14.6,16.5,264,985.41,-0.6,81,6.45,0.0,1013.26,150.2
2018-10-12 09:50,51.883135,-96.9781366666667,14.9,17.1,264,985.41,-0.6,81,6.42,0.0,1013.25,150.2
2018-10-12 10:00,51.8832,-96.97818,15.4,17.6,262,985.35,-0.9,81,6.39,0.0,1013.20,357.2
2018-10-12 10:10,51.8832533333333,-96.9781966666667,15.6,17.8,262,985.30,-1.0,79,6.36,0.0,1013.17,357.2
2018-10-12 10:20,51.8832016666667,-96.9781483333333,15.7,18.4,263,985.29,-0.9,78,6.33,0.0,1013.16,357.2
2018-10-12 10:30,51.88328,-96.9782016666667,15.6,17.3,261,985.23,-0.8,74,6.31,0.0,1013.10,357.2
2018-10-12 10:40,51.8832683333333,-96.9781966666667,15.6,17.5,259,985.18,-0.8,74,6.29,0.0,1013.04,357.2
2018-10-12 10:50,51.8832133333333,-96.9781783333333,14.6,17.7,256,985.15,-0.7,75,6.26,0.0,1013.01,357.2
2018-10-12 11:00,51.8831966666667,-96.9781366666667,14.0,16.5,254,985.08,-0.8,76,6.24,0.0,1012.94,343.5
2018-10-12 11:10,51.8832,-96.9781666666667,13.7,16.3,254,985.03,-0.7,75,6.23,0.0,1012.88,343.5
2018-10-12 11:20,51.8832566666667,-96.9781816666667,14.0,16.3,258,984.93,-0.7,75,6.21,0.0,1012.78,343.5
2018-10-12 11:30,51.88326,-96.97821,13.3,15.7,252,984.83,-0.6,76,6.19,0.0,1012.68,343.5
2018-10-12 11:40,51.8833083333333,-96.9782283333333,12.4,14.3,248,984.78,-0.8,77,6.17,0.0,1012.63,343.5
2018-10-12 11:50,51.8833483333333,-96.9782833333333,12.3,14.1,242,984.69,-0.9,79,6.16,0.0,1012.55,343.5
2018-10-12 12:00,51.8833716666667,-96.9783433333333,12.5,14.7,234,984.53,-1.1,79,6.14,0.0,1012.40,333.5
2018-10-12 12:10,51.8833283333333,-96.9782866666667,12.9,14.9,238,984.43,-1.1,77,6.12,0.0,1012.30,333.5
2018-10-12 12:20,51.88334,-96.97831,12.0,14.1,232,984.44,-1.2,78,6.11,0.0,1012.31,333.5
2018-10-12 12:30,51.8836116666667,-96.978405,12.4,14.1,235,984.46,-1.4,76,6.10,0.1,1012.34,333.5
2018-10-12 12:40,51.87989,-96.97699,13.3,16.4,231,984.19,-1.3,76,6.09,1.4,1012.05,333.5
2018-10-12 12:50,51.8664633333333,-96.9662933333333,15.2,17.6,218,984.12,-1.1,77,6.23,5.4,1011.97,333.5
2018-10-12 13:00,51.8658116666667,-96.9662516666667,12.6,15.8,225,984.14,-0.9,79,6.24,0.2,1011.98,157.1
2018-10-12 13:10,51.86589,-96.9646366666667,12.7,16.3,220,984.04,-0.8,78,6.17,0.4,1011.87,157.1
2018-10-12 13:20,51.84639,-96.9443466666667,17.6,20.9,200,983.66,-0.6,79,6.20,8.3,1011.47,157.1
2018-10-12 13:30,51.8219583333333,-96.9177466666667,19.1,21.8,196,983.62,-0.7,77,6.16,10.6,1011.44,157.1
2018-10-12 13:40,51.795955,-96.8946816666667,19.2,23.1,192,983.56,-0.6,80,6.64,10.7,1011.37,157.1
2018-10-12 13:50,51.7722783333333,-96.8678333333333,15.5,19.1,184,983.73,-1.2,83,7.02,10.4,1011.59,157.1
2018-10-12 14:00,51.748925,-96.8395816666667,17.8,20.4,187,983.63,-2.1,87,6.99,10.5,1011.54,147.4
2018-10-12 14:10,51.7240916666667,-96.815205,17.9,21.2,195,983.60,-2.7,86,6.94,10.5,1011.54,147.4
2018-10-12 14:20,51.6977466666667,-96.793815,19.6,21.6,196,983.48,-2.1,85,6.90,10.6,1011.40,147.4
2018-10-12 14:30,51.6712833333333,-96.7726516666667,19.9,23.3,199,983.46,-1.9,81,6.75,10.6,1011.37,147.4
2018-10-12 14:40,51.64459,-96.780045,18.1,22.0,210,983.24,-1.5,80,6.62,9.8,1011.10,147.4
2018-10-12 14:50,51.6388316666667,-96.8027416666667,13.4,20.6,225,983.29,-1.4,79,6.27,5.5,1011.14,147.4
2018-10-12 15:00,51.6393316666667,-96.8027683333333,6.7,8.6,227,983.62,-1.6,80,6.16,0.2,1011.49,155.9
2018-10-12 15:10,51.63691,-96.7880083333333,6.8,11.3,192,983.49,-0.9,76,6.12,3.4,1011.31,155.9
2018-10-12 15:20,51.6291416666667,-96.7477066666667,11.7,18.3,164,983.28,-0.5,75,6.20,9.4,1011.08,155.9
2018-10-12 15:30,51.6086316666667,-96.7134133333333,15.8,19.4,170,983.01,-0.2,71,6.10,10.6,1010.77,155.9
2018-10-12 15:40,51.580405,-96.7005183333333,21.1,24.9,187,982.57,0.2,72,6.23,10.6,1010.34,155.9
2018-10-12 15:50,51.5527016666667,-96.6864283333333,23.9,26.4,193,982.32,0.1,79,5.99,10.5,1010.13,155.9
2018-10-12 16:00,51.52521,-96.67264,24.9,27.3,192,982.23,-0.1,80,5.91,10.4,1010.07,151.8
2018-10-12 16:10,51.4972183333333,-96.6604683333333,23.2,27.5,196,982.31,0.2,76,6.12,10.4,1010.12,151.8
2018-10-12 16:20,51.4690883333333,-96.6460766666667,22.0,24.4,187,982.36,0.6,65,6.14,10.6,1010.14,151.8
2018-10-12 16:30,51.4406183333333,-96.6319583333333,22.3,24.9,188,982.26,0.9,64,6.33,10.7,1010.00,151.8
2018-10-12 16:40,51.4118766666667,-96.6186616666667,22.3,24.6,191,982.17,1.1,63,6.68,10.8,1009.90,151.8
2018-10-12 16:50,51.3834383333333,-96.604615,22.2,25.2,191,982.05,1.4,61,6.56,10.7,1009.76,151.8
2018-10-12 17:00,51.3552366666667,-96.5911566666667,24.9,27.8,191,981.71,1.7,60,6.64,10.6,1009.36,158.5
2018-10-12 17:10,51.32757,-96.6004383333333,25.5,27.6,205,981.39,1.6,65,6.75,10.2,1009.01,158.5
2018-10-12 17:20,51.2997983333333,-96.6152233333333,25.3,27.0,208,981.20,1.6,64,6.39,10.5,1008.80,158.5
2018-10-12 17:30,51.2718733333333,-96.6294616666667,23.4,25.9,211,981.34,1.8,65,6.44,10.6,1008.92,158.5
2018-10-12 17:40,51.24407,-96.623785,20.3,26.2,188,981.34,2.2,66,6.59,10.1,1008.90,158.5
2018-10-12 17:50,51.21595,-96.6087716666667,26.0,28.5,172,980.78,2.2,71,6.62,10.7,1008.33,158.5
2018-10-12 18:00,51.1883283333333,-96.5962366666667,27.6,30.2,184,980.70,2.0,74,6.65,10.3,1008.25,164.0
2018-10-12 18:10,51.1670066666667,-96.6140316666667,25.9,30.4,193,980.03,1.9,75,6.94,8.7,1007.54,164.0
2018-10-12 18:20,51.1556266666667,-96.616755,20.9,28.8,187,980.74,2.0,74,7.07,4.1,1008.25,164.0
2018-10-12 18:30,51.1312916666667,-96.62341,25.6,29.9,189,979.93,2.1,76,6.92,8.9,1007.41,164.0
2018-10-12 18:40,51.1023066666667,-96.6290216666667,27.5,30.2,192,979.72,2.1,75,6.67,10.5,1007.18,164.0
2018-10-12 18:50,51.07327,-96.6355183333333,27.2,29.2,192,979.56,2.4,75,6.61,10.6,1006.99,164.0
2018-10-12 19:00,51.044465,-96.6442516666667,28.0,30.0,190,979.09,2.5,74,6.68,10.6,1006.50,177.9
2018-10-12 19:10,51.0154433333333,-96.6518883333333,27.8,30.2,188,978.90,2.7,73,6.84,10.6,1006.29,177.9
2018-10-12 19:20,50.986225,-96.6575916666667,27.7,30.8,186,978.66,2.9,71,6.87,10.6,1006.03,177.9
2018-10-12 19:30,50.9569716666667,-96.6635316666667,28.9,31.8,184,978.23,3.0,70,6.93,10.6,1005.56,177.9
2018-10-12 19:40,50.9286083333333,-96.6745416666667,28.6,31.4,186,978.17,3.3,69,6.97,10.5,1005.48,177.9
2018-10-12 19:50,50.9014816666667,-96.6928266666667,27.8,30.4,188,978.13,3.5,69,6.76,10.6,1005.45,177.9
2018-10-12 20:00,50.8743583333333,-96.7114983333333,27.4,29.9,188,978.11,3.8,66,6.77,10.6,1005.40,189.0
2018-10-12 20:10,50.84723,-96.7302066666667,27.5,30.5,183,978.02,3.9,65,6.93,10.7,1005.30,189.0
2018-10-12 20:20,50.819715,-96.7480416666667,27.1,29.2,184,977.87,4.1,65,6.85,10.7,1005.14,189.0
2018-10-12 20:30,50.7921766666667,-96.7658666666667,27.1,29.7,181,977.91,4.2,63,6.78,10.7,1005.18,189.0
2018-10-12 20:40,50.7645083333333,-96.7840766666667,25.3,31.2,179,978.08,4.5,64,6.84,10.8,1005.32,189.0
2018-10-12 20:50,50.73729,-96.8015316666667,23.3,26.5,200,978.02,5.4,55,6.89,10.6,1005.21,189.0
2018-10-12 21:00,50.7101166666667,-96.82146,23.7,25.9,203,977.72,5.6,52,6.89,10.8,1004.88,196.6
2018-10-12 21:10,50.682175,-96.8399983333333,23.7,26.0,198,977.57,5.8,53,6.86,10.9,1004.70,196.6
2018-10-12 21:20,50.654025,-96.8582933333333,22.4,25.4,201,977.75,5.9,54,6.77,11.0,1004.88,196.6
2018-10-12 21:30,50.626595,-96.8751933333333,21.0,24.1,201,977.73,6.0,50,6.69,10.6,1004.84,196.6
2018-10-12 21:40,50.62571,-96.920615,14.0,19.4,235,978.20,6.1,50,6.62,10.4,1005.31,196.6
2018-10-12 21:50,50.627655,-96.9691766666667,14.9,22.5,227,978.07,6.4,50,6.41,11.1,1005.15,196.6
2018-10-12 22:00,50.6304283333333,-96.98075,11.5,17.5,219,978.14,7.0,40,5.92,2.8,1005.19,207.3
2018-10-12 22:10,50.630435,-96.98075,8.5,12.7,201,978.12,7.1,40,4.86,0.0,1005.14,207.3
2018-10-12 22:20,50.6304133333333,-96.980745,10.3,14.1,194,977.98,6.9,40,4.70,0.0,1005.01,207.3
2018-10-12 22:30,50.6304133333333,-96.9807616666667,8.4,12.9,192,977.90,6.8,41,4.70,0.0,1004.92,207.3
2018-10-12 22:40,50.63042,-96.98074,9.2,14.1,170,977.86,6.1,52,4.65,0.0,1004.86,207.3
2018-10-12 22:50,50.630395,-96.980795,12.1,16.9,167,977.74,4.9,65,4.62,0.0,1004.79,207.3
2018-10-12 23:00,50.63042,-96.980765,12.6,16.0,181,977.60,5.5,53,4.61,0.0,1004.61,215.0
2018-10-12 23:10,50.6304266666667,-96.980755,10.6,13.9,183,977.58,5.6,53,4.60,0.0,1004.58,215.0
2018-10-12 23:20,50.6304283333333,-96.9807466666667,9.1,10.7,182,977.54,5.2,55,4.57,0.0,1004.55,215.0
2018-10-12 23:30,50.6304266666667,-96.980745,11.5,15.0,184,977.42,5.0,57,4.55,0.0,1004.44,215.0
2018-10-12 23:40,50.6304383333333,-96.980755,10.5,14.1,182,977.36,4.8,57,4.55,0.0,1004.37,215.0
2018-10-12 23:50,50.6304366666667,-96.980745,12.1,15.3,177,977.28,4.4,58,4.53,0.0,1004.27,215.0
